701  
ASUS45 KGGW 261815  
RWRGGW  
HOURLY REGIONAL WEATHER ROUNDUP FOR NORTHEAST MONTANA  
NATIONAL WEATHER SERVICE GLASGOW MONTANA  
1100 AM MST FRI FEB 26 2021  
 
NOTE: "FAIR" INDICATES FEW OR NO CLOUDS BELOW 12,000 FEET WITH NO  
SIGNIFICANT WEATHER AND/OR S TO VISISBILITY.  
 
NORTHEAST MONTANA  
 
 
CITY SKY/WX TMP DP RH WIND PRES REMARKS
 
GLASGOW MOSUNNY 41 20 43 W17 29.50R  
6HR MIN TEMP: 23; 6HR MAX TEMP: 42;  
 
PLENTYWOOD N/A 35 22 58 W9G17 N/A  
WOLF POINT MOSUNNY 40 23 50 W20G25 29.50F  
JORDAN N/A 43 17 35 W21G30 29.51S  
WINNETT N/A 39 12 33 W20G31 N/A  
SIDNEY SUNNY 42 21 43 NW24G31 29.50S  
GLENDIVE MOSUNNY 40 20 44 W17 29.53S  
MALTA N/A 40 16 37 W8 N/A  
 
FORT PECK REPORTS  
 
 
CITY SKY/WX TMP DP RH WIND PRES REMARKS
 
FORT PECK N/A 39 23 52 W20G31 N/A  
THE PINES N/A 43 16 33 W10G20 N/A  
 
SOUTHEAST MONTANA  
 
 
CITY SKY/WX TMP DP RH WIND PRES REMARKS
 
BILLINGS PTSUNNY 35 12 38 SW13 29.60F  
MILES CITY PTSUNNY 39 19 44 W17G25 29.57F  
BAKER MOSUNNY 40 14 34 W22G29 29.55F  
LIVINGSTON PTSUNNY 33 12 41 SW31G43 29.60S  
 
CENTRAL MONTANA  
 
 
CITY SKY/WX TMP DP RH WIND PRES REMARKS
 
HAVRE PTSUNNY 34 23 64 SW14 29.52S  
LEWISTOWN CLOUDY 32 19 58 W21 29.52F  
GREAT FALLS PTSUNNY 36 14 40 SW21G30 29.53S  
CUT BANK CLOUDY 34 16 47 W20 29.49R  
HELENA PTSUNNY 37 14 38 W14G24 29.59F  
BUTTE CLOUDY 26 15 63 SW9 29.61S  
BOZEMAN PTSUNNY 33 14 45 SW23G31 29.62F  
 
WESTERN MONTANA  
 
 
CITY SKY/WX TMP DP RH WIND PRES REMARKS
 
MISSOULA CLOUDY 32 28 85 S16 29.64S  
KALISPELL NOT AVBL  
 
NORTH DAKOTA  
 
 
CITY SKY/WX TMP DP RH WIND PRES REMARKS
 
WILLISTON PTCLDY 37 22 54 W16 29.47R  
DICKINSON NOT AVBL  
MINOT SUNNY 35 23 61 W16 29.46R  
BISMARCK SUNNY 47 19 33 W15G26 29.53S  
 
SOUTHERN SASKATCHEWAN  
 
 
CITY SKY/WX TMP DP RH WIND PRES REMARKS
 
REGINA CLOUDY 27 21 80 NW7 29.43R  
MOOSE JAW CLOUDY 30 21 69 NW15 29.46R  
ESTEVAN PTSUNNY 28 21 74 W9 29.44R  
SWIFT CURRENT SUNNY 25 19 80 W13 29.44R  
 
 
 
CLICK HERE TO GO TO PREVIOUS BULLETINS.

The Nexlab MT Page Main Text Page